Regional Weather Roundup
Issued by NWS

Home | Current Version | Previous Version | Text Only | Print | Product List | Glossary Off
Versions: 1 2 3 4 5 6 7 8 9 10 11 12 13 14 15 16 17 18 19 20 21 22 23 24 25 26 27 28 29 30 31 32 33 34 35 36 37 38 39 40 41 42 43 44 45 46 47 48 49 50

000
ASUS43 KFSD 230102
RWRSD

WEATHER ROUNDUP FOR SOUTH DAKOTA
NATIONAL WEATHER SERVICE SIOUX FALLS SD
800 PM CDT FRI AUG 22 2014

NOTE: "FAIR" INDICATES FEW OR NO CLOUDS BELOW 12,000 FEET WITH NO
SIGNIFICANT WEATHER AND/OR OBSTRUCTIONS TO VISIBILITY.


SDZ001>005-009-010-012>017-230200-
NORTHWEST AND NORTH CENTRAL SOUTH DAKOTA

CITY           SKY/WX    TMP DP  RH WIND       PRES   REMARKS
BUFFALO          N/A     68  60  75 E10       29.98S
FAITH            N/A     71  64  78 NE13      30.01S
MOBRIDGE       PTCLDY    72  64  76 N9        29.98F
$$

SDZ012>016-024>037-041>051-057-063-072>074-230200-
SOUTHWEST AND SOUTH CENTRAL SOUTH DAKOTA

CITY           SKY/WX    TMP DP  RH WIND       PRES   REMARKS
RAPID CTY ARPT MOCLDY    73  63  70 CALM      30.00F
PIERRE         MOCLDY    74  65  73 NE14      29.94F
ELLSWORTH AFB  CLOUDY    73  64  71 E6        30.00F
PHILIP         MOCLDY    80  66  62 E20       29.94F
PINE RIDGE     PTCLDY    74  60  61 SE8       29.98F
WINNER         FAIR      79  68  69 E9        29.95F
$$

SDZ004>011-016>023-039-040-230200-
NORTHEAST SOUTH DAKOTA

CITY           SKY/WX    TMP DP  RH WIND       PRES   REMARKS
ABERDEEN       PTCLDY    74  68  81 NE8       30.00S
WATERTOWN      MOCLDY    72  69  90 NE7       29.98F
SISSETON         N/A     74  70  87 NE6       30.00S
$$

SDZ017-020-022-023-036>040-048>070-230200-
SOUTHEAST SOUTH DAKOTA

CITY           SKY/WX    TMP DP  RH WIND       PRES   REMARKS
SIOUX FALLS    MOCLDY    80  69  69 E9        29.96R
HURON          MOCLDY    76  70  82 NE8       29.94F
CHAMBERLAIN    MOCLDY    77  67  71 E3        29.94F
MITCHELL       PTCLDY    79  71  76 E5        29.94F
YANKTON        MOCLDY    79  73  83 E6        29.94R
$$

ABBREVIATIONS USED IN REMARKS
   TC - TEMPERATURE IN CELSIUS
  WCI - WIND CHILL INDEX
   HX - HEAT INDEX
  VSB - VISIBILITY



USA.gov is the U.S. government's official web portal to all federal, state and local government web resources and services.